カタログに戻る

FENGYUN 1C DEB

LostPO
NORAD 31643·DEBRIS·🇨🇳 China

打ち上げ May 10, 1999 から Taiyuan Satellite Launch Center

Loading…

次のパス (今後24時間)

TLE

古いSource: Space-Track

元期: Sep 29, 2024, 19:57 UTC

1 31643U 99025CAZ 24273.83177292  .00005668  00000-0  34750-2 0  9995
2 31643  98.3594 126.8056 0098363 103.9432 319.1130 14.03696979508023

AllMySatでFENGYUN 1C DEBをリアルタイム追跡

Download on the App Store